Location: Fasanenhof
(48.7107°N, 9.1590°E)
Time: 09:52:29
(UTC+00:00)

Daily predictions for brighter satellites

Satellite Brightness Start Highest point End
(mag) Time Altitude Azimuth Time Altitude Azimuth Time Altitude Azimuth
CZ-4C R/B 3.2 19:39:23 10° NW 19:46:14 61° NE 19:54:01 10° ESE
H-2A R/B 2.3 19:45:16 10° SSE 19:50:08 56° ENE 19:55:09 10° N
Cosmos 1340 Rocket 3.0 19:46:27 10° S 19:50:25 56° E 19:54:27 10° NNE
Meteor 2-9 Rocket 4.3 19:46:28 10° NNW 19:51:50 80° W 19:57:17 10° S
Aureole 2 Rocket 3.0 19:49:43 10° NW 19:52:32 43° WSW 19:55:11 10° S
ERS-2 4.1 19:50:29 10° SSW 19:53:43 28° W 19:56:59 10° NW
Terra 3.6 19:51:40 10° ESE 19:54:59 19° ENE 19:58:20 10° NNE
Cosmos 1536 Rocket 4.0 19:51:39 10° SSE 19:55:52 43° E 20:00:07 10° NNE
Cosmos 1356 3.7 19:53:20 10° S 19:56:42 51° E 20:00:06 10° NNE
ERBS 4.3 19:58:06 10° NW 20:00:59 25° NNE 20:03:51 10° ENE
SPOT 5 3.6 19:59:05 10° SE 20:03:12 37° ENE 20:07:32 10° N
Cosmos 540 Rocket 3.6 20:00:46 10° S 20:05:46 53° ESE 20:10:49 10° NNE
USA 234 3.5 20:00:58 10° ENE 20:07:15 46° SE 20:13:30 10° SSW
SL-16 R/B 4.4 20:05:19 10° N 20:08:49 16° NE 20:12:19 10° ENE
Resurs 01 Rocket 3.6 20:06:29 10° SSW 20:10:12 26° W 20:13:57 10° NW
Cosmos 2333 Rocket 2.9 20:04:53 10° NNW 20:10:21 44° NE 20:15:48 10° SE
Cosmos 292 Rocket 3.8 20:07:53 10° SSW 20:12:39 87° WNW 20:17:27 10° NNE
COSMOS 2428 2.9 20:07:38 10° NNW 20:13:19 66° ENE 20:18:46 11° SE
CSL-04 DEB 4.4 20:09:39 10° SSE 20:13:48 83° ENE 20:17:52 10° NNW
SL-23 DEB 4.5 20:10:37 10° W 20:13:59 58° N 20:19:05 10° E
ARGOS 3.5 20:15:32 10° S 20:20:54 68° WSW 20:26:20 10° NNW
Cosmos 1763 Rocket 4.4 20:16:47 10° SW 20:21:58 53° WNW 20:27:08 10° NNE
Cosmos 1513 Rocket 4.5 20:16:41 10° S 20:22:48 82° E 20:29:04 10° N
NOSS 3-2 (C) 4.5 20:17:21 10° WSW 20:23:20 54° NW 20:30:05 10° NE
Meteor 1-23 Rocket 4.2 20:17:54 10° S 20:23:27 77° E 20:29:02 10° NNE
Cosmos 1833 4.3 20:17:44 10° SSW 20:23:28 89° SE 20:29:11 10° NNE
Abrixas rocket 2.1 20:20:46 10° W 20:24:01 86° S 20:27:15 10° E
Tiangong 2 2.4 20:24:58 10° WSW 20:27:36 24° S 20:29:17 16° SE
CARTOSAT-1 4.5 20:24:21 12° SE 20:27:50 35° ENE 20:31:46 10° N
Meteor 2-4 Rocket 4.3 20:22:56 10° SSW 20:28:22 62° WNW 20:34:01 10° N
Cosmos 2297 Rocket 4.0 20:26:31 10° ESE 20:28:40 12° E 20:30:57 10° ENE
SL-08 RB Rocket 4.0 20:24:25 10° S 20:28:55 68° WSW 20:33:32 10° NNW
Cosmos 1025 Rocket 3.5 20:25:35 10° SSE 20:29:44 45° E 20:33:56 10° NNE
Cosmos 841 Rocket 4.1 20:24:53 10° SW 20:30:05 63° WNW 20:35:22 10° NNE
Cosmos 2322 Rocket 4.3 20:26:10 10° NW 20:30:12 21° W 20:34:13 10° SSW
Cosmos 2034 Rocket 4.0 20:24:14 10° S 20:30:21 77° E 20:36:32 10° NNE
Cosmos 1464 Rocket 4.2 20:25:36 10° SSW 20:31:59 80° W 20:38:24 10° N
Cosmos 2227 Rocket 3.9 20:30:05 12° SE 20:32:30 15° E 20:35:38 10° ENE
CENTAUR R/B 2.7 20:26:39 10° SW 20:32:48 82° NW 20:40:00 10° NE
Cosmos 372 Rocket 4.2 20:27:42 10° NNW 20:32:49 68° WSW 20:37:41 11° S
Cosmos 2322 4.3 20:28:33 10° NW 20:34:09 55° WSW 20:39:43 10° S
Okean 2 3.5 20:30:40 10° S 20:34:46 62° E 20:38:55 10° NNE
Cosmos 2237 Rocket 3.1 20:29:51 10° NNW 20:35:13 40° NE 20:40:07 12° ESE
ISS -2.8 20:37:10 10° WNW 20:40:21 48° N 20:43:33 10° ENE
Cosmos 1606 Rocket 4.3 20:37:18 10° N 20:41:31 40° ENE 20:44:39 17° SE
Helios 1A 3.0 20:43:57 14° SSE 20:47:29 82° WSW 20:51:42 10° NNW
Cosmos 1356 Rocket 3.5 20:44:29 10° S 20:48:44 71° E 20:53:04 10° NNE
Cosmos 1066 Rocket 4.3 20:43:44 11° S 20:48:50 59° E 20:54:15 10° NNE
Cosmos 2084 Rocket 3.9 20:45:44 10° NW 20:49:40 48° NE 20:52:42 15° ESE
ERS-1 Rocket 3.6 20:47:47 10° S 20:52:41 53° W 20:57:37 10° NNW
Cosmos 1634 Rocket 4.3 20:49:38 14° SSE 20:54:54 52° E 21:01:01 10° NNE
USA 245 4.4 20:52:51 11° S 20:56:29 48° W 21:01:16 10° NNW
Helios 1B rocket 2.5 20:57:12 10° NNE 21:01:20 62° ESE 21:04:26 17° S
Lacrosse 5 rocket 3.6 21:00:30 10° W 21:02:56 15° WSW 21:05:17 10° SSW
Cosmos 2219 3.3 21:01:01 10° S 21:06:40 61° ESE 21:12:20 10° NNE
Cosmos 1544 3.1 21:03:56 10° NNW 21:07:40 82° W 21:09:57 22° S
CZ-2C R/B 3.6 21:06:07 10° NNE 21:11:12 34° E 21:14:10 21° SE
Landsat 7 4.0 21:09:52 17° S 21:13:27 67° WSW 21:18:13 10° NNW
Cosmos 1953 4.0 21:11:24 10° NNE 21:14:29 21° ENE 21:16:20 16° ESE
YAOGAN 11 4.2 21:12:23 23° SSE 21:15:11 72° ENE 21:19:45 10° N
Meteor 1-22 Rocket 4.0 21:12:09 10° N 21:17:32 86° ENE 21:21:05 22° SSE
Cosmos 2360 Rocket 4.2 21:14:06 10° NW 21:18:01 20° W 21:21:56 10° SW
SJ 16-02 3.4 21:15:31 10° NW 21:18:50 21° W 21:22:07 10° SW
IGS 5A 3.6 21:16:47 22° S 21:19:24 72° WSW 21:23:36 10° NNW
Cosmos 2219 Rocket 2.5 21:15:23 10° NW 21:20:52 57° WSW 21:24:39 20° S
Cosmos 2228 3.1 21:17:20 10° N 21:21:36 65° ENE 21:23:54 26° SSE
Cosmos 1892 Rocket 3.7 21:20:16 25° SSE 21:22:36 55° E 21:26:52 10° NNE
Spot 1 4.2 21:21:10 22° S 21:23:40 62° WSW 21:27:45 10° NNW
CZ-2C R/B 3.2 21:22:36 22° SSE 21:26:15 84° ENE 21:32:01 10° NNW
SPOT 1/Viking Rocket 4.4 21:22:09 14° SSW 21:26:20 44° W 21:31:17 10° NNW
H-2A R/B 4.0 21:26:09 10° SW 21:29:57 22° W 21:33:51 10° NW
Terra 2.0 21:29:15 22° S 21:32:17 66° WSW 21:37:02 10° NNW
ASTRO F (AKARI) 4.4 21:30:06 10° NNE 21:33:23 65° ESE 21:34:37 35° S
NOSS 0 Rocket 4.1 21:28:31 10° NW 21:34:43 65° WSW 21:38:39 23° S
CZ-4C R/B 3.6 21:28:06 10° NW 21:34:49 43° WSW 21:40:09 19° S
Cosmos 1726 Rocket 3.7 21:31:45 10° NNW 21:36:09 71° W 21:38:38 25° S
Cosmos 1174 3.4 21:33:33 10° NW 21:36:33 56° WSW 21:37:26 39° S
ERBS 2.2 21:34:29 10° NW 21:37:52 90° W 21:39:03 38° SE
Meteor 1-29 3.4 21:36:30 10° N 21:39:58 59° WNW 21:42:06 21° SSW
Cosmos 1766 3.6 21:36:32 10° NNW 21:40:29 61° W 21:42:28 27° SSW
SPOT 5 4.3 21:37:55 12° SSW 21:41:23 28° W 21:45:25 10° NW
Okean 1-7 Rocket 4.1 21:39:52 16° SSW 21:43:27 59° WNW 21:47:58 10° N
Cosmos 1733 3.8 21:39:58 10° N 21:43:42 46° ENE 21:45:01 32° SE
Cosmos 773 Rocket 4.0 21:44:39 25° S 21:47:33 63° ESE 21:52:39 10° NNE
USA 234 3.5 21:43:58 10° NE 21:50:31 72° NNW 21:57:02 10° WSW
SL-16 R/B 2.5 21:48:31 10° NNW 21:54:10 62° ENE 21:57:30 25° SE
Cosmos 2333 Rocket 3.2 21:49:22 10° NW 21:54:33 37° WSW 21:57:51 20° SSW
ADEOS Rocket 4.3 21:51:09 10° NE 21:55:13 21° E 21:57:03 18° ESE
COSMOS 2428 4.4 21:52:44 10° NW 21:57:04 23° WSW 22:00:46 12° SSW
Cosmos 2058 Rocket 3.4 21:53:31 10° NNW 21:57:59 60° W 22:00:10 29° SSW
Cosmos 2026 Rocket 4.4 21:52:45 10° NNW 21:58:45 55° W 22:02:49 20° SSW
Abrixas rocket 2.0 21:57:11 10° W 22:00:24 63° SSW 22:00:36 61° S
Cosmos 1980 4.2 21:56:52 10° NW 22:02:20 51° WSW 22:05:11 27° S
BREEZE-M R/B 1.7 22:02:27 10° WNW 22:05:00 79° NNW 22:05:00 79° NNW
Iridium 4 Rocket 3.8 22:04:12 29° S 22:07:17 75° E 22:13:14 10° N
Cosmos 2279 Rocket 4.0 22:03:27 22° SSW 22:07:40 80° W 22:13:55 10° N
Spot 4 3.9 22:06:16 32° S 22:08:29 74° WSW 22:13:23 10° NNW
Cosmos 1758 3.4 22:07:36 10° NNW 22:11:42 75° W 22:13:05 40° S
Cosmos 2297 Rocket 2.1 22:08:16 24° SSW 22:11:43 76° ESE 22:17:24 10° NNE
COSMOS 2455 2.8 22:07:47 20° SSW 22:12:07 75° ESE 22:18:10 10° NE
Cosmos 1805 4.3 22:08:29 10° NNW 22:12:09 38° W 22:13:43 26° SW
CZ-4 R/B 4.2 22:07:36 10° NNE 22:12:31 52° E 22:14:21 34° SSE
Cosmos 1400 Rocket 4.3 22:14:23 23° ESE 22:15:05 24° E 22:18:25 10° NE
Cosmos 2227 Rocket 2.1 22:11:50 21° SSW 22:15:42 88° ESE 22:21:26 10° NNE
Cosmos 1842 3.9 22:14:09 27° SW 22:16:01 50° WNW 22:19:50 10° N
ISS -3.9 22:13:46 10° WNW 22:17:03 85° NNE 22:17:42 54° ESE
Cosmos 1655 Rocket 4.3 22:10:51 10° NNW 22:17:08 61° W 22:20:52 25° SSW
Cosmos 2237 Rocket 3.0 22:14:00 10° NW 22:19:19 41° WSW 22:21:57 26° SSW
Cosmos 1470 2.6 22:16:18 10° N 22:20:13 88° ENE 22:21:12 49° S
ALOS 2 3.1 22:19:14 32° SE 22:20:54 51° ENE 22:25:11 10° N
Cosmos 1812 Rocket 3.5 22:19:01 10° N 22:23:25 79° E 22:24:48 42° SSE
Cosmos 1626 Rocket 3.5 22:22:01 39° S 22:23:39 85° ESE 22:28:09 10° N
Cosmos 1602 Rocket 3.5 22:25:56 41° S 22:27:26 83° E 22:31:55 10° N
Mayak -0.6 22:24:19 10° NNE 22:28:22 41° E 22:29:14 36° SE
Meteor 2-11 Rocket 4.4 22:26:32 31° S 22:29:33 74° E 22:35:38 10° NNE
Cosmos 2082 3.7 22:28:12 25° SSW 22:31:41 89° ESE 22:37:27 10° NNE
DELTA 2 DEB (DPAF) 4.2 22:32:19 40° SSE 22:33:53 73° ENE 22:38:21 10° N
Cosmos 1371 Rocket 4.2 22:32:46 10° NNW 22:38:02 66° ENE 22:40:26 32° SE
Cosmos 1378 3.2 22:38:47 49° SSW 22:39:40 74° W 22:43:27 10° N
Cosmos 1818 3.5 22:36:41 25° SSW 22:39:55 84° SE 22:45:25 10° NE
Cosmos 1758 Rocket 4.5 22:39:03 31° ESE 22:40:10 37° E 22:44:19 10° NNE
Cosmos 1707 2.7 22:39:49 54° S 22:40:39 78° E 22:44:34 10° NNE
USA 229 DEB 4.0 22:39:56 31° SSE 22:42:31 45° ESE 22:49:01 10° NE
USA 229 4.1 22:40:04 31° SSE 22:42:38 44° ESE 22:49:07 10° NE
Cosmos 2266 Rocket 4.1 22:37:22 10° NNW 22:43:43 72° W 22:46:57 31° S
COBE Rocket 4.0 22:41:17 10° N 22:45:59 69° WNW 22:48:08 32° SSW
CZ-4C R/B 3.6 22:46:10 44° SSE 22:47:33 84° ENE 22:52:00 10° NNW
SL-19 R/B 4.4 22:43:19 10° NNE 22:49:31 88° WNW 22:52:36 30° SSW
H-2A R/B 2.0 22:48:21 44° SE 22:49:38 74° ENE 22:53:52 10° N
Cosmos 1953 3.3 22:47:21 10° NNW 22:51:02 36° W 22:52:03 31° SW
CZ-2C R/B 3.7 22:46:16 10° N 22:51:34 43° WNW 22:55:41 16° SW
Cosmos 1315 Rocket 4.1 22:52:21 26° ESE 22:52:54 27° E 22:56:16 10° NNE
Cosmos 2056 Rocket 3.5 22:49:27 10° NNW 22:54:36 72° ENE 22:56:46 35° SE
CZ-4B R/B 3.6 22:51:21 10° NNE 22:56:26 64° ESE 22:58:18 39° SSE
Cosmos 1346 Rocket 4.2 22:56:33 10° N 22:59:59 29° ENE 23:01:15 24° ESE
Cosmos 1680 Rocket 3.5 23:00:46 33° SSW 23:03:09 81° WNW 23:08:24 10° NNE
Cosmos 923 Rocket 4.3 23:00:29 26° SW 23:03:23 64° WNW 23:08:36 10° NNE
Cosmos 1624 Rocket 4.0 22:58:43 10° NNW 23:04:06 89° ENE 23:06:16 37° SSE
Cosmos 1238 Rocket 2.9 23:06:01 50° SSE 23:06:54 66° E 23:10:35 10° NNE
Cosmos 2112 Rocket 3.9 23:05:01 36° SSW 23:07:14 85° WNW 23:12:28 10° NNE
BREEZE-M R/B 4.2 23:01:04 10° WNW 23:07:41 81° N 23:14:04 10° E
Cosmos 1674 3.9 23:16:10 28° ESE 23:16:41 29° E 23:19:58 10° NNE
Cosmos 1825 Rocket 3.5 23:16:23 47° SSW 23:17:39 82° W 23:22:08 10° N
Cosmos 972 Rocket 3.9 23:24:38 38° SSW 23:26:43 86° WNW 23:31:42 10° NNE
Cosmos 2263 Rocket 3.2 23:30:09 27° SE 23:32:00 34° ESE 23:37:04 10° NE
USA 234 4.4 23:26:55 10° ENE 23:33:04 45° N 23:39:14 10° WNW
Cosmos 1943 3.3 23:28:33 10° NNW 23:34:17 74° ENE 23:37:34 26° SE
SL-16 R/B 3.5 23:33:20 10° NW 23:37:51 25° WSW 23:39:22 22° SW
Cosmos 1745 Rocket 4.1 23:34:33 10° N 23:40:58 79° E 23:44:17 31° SSE
ADEOS Rocket 3.0 23:35:50 10° N 23:41:18 63° WNW 23:44:00 30° SW
CZ-4B R/B 3.8 23:40:11 13° ESE 23:41:59 18° ENE 23:44:22 10° NNE
Meteor 1-24 Rocket 3.8 23:40:20 36° SSW 23:42:53 88° W 23:48:54 10° NNE
PSLV R/B 4.5 23:45:04 10° NNE 23:49:13 40° E 23:50:37 31° SE
Cosmos 1726 2.2 23:47:03 10° N 23:50:45 71° E 23:51:28 53° SE
Cosmos 1400 Rocket 4.0 23:50:01 27° WSW 23:51:25 34° WNW 23:55:14 10° N
Cosmos 1842 Rocket 3.7 23:48:48 10° N 23:53:10 66° ENE 23:54:43 38° SSE
Aureole 1 Rocket 3.8 23:53:41 23° E 23:53:41 23° E 23:55:55 10° NE
Meteor 2-13 Rocket 4.4 23:47:33 10° N 23:53:39 81° E 23:56:47 30° SSE
